Flag for Russia Weather past 2 weeks in Kazan, Russia

Now
72 °F

Sunny.


Feels Like: 75 °F
Forecast: 58 / 68 °F
Wind: 13 mph from West

Location: Kazan'

Current Time: Aug 28, 2015 at 1:42:54 PM

Latest Report: Aug 28, 2015 at 1:00 PM


Visibility: 10 mi

Pressure: 29.92 "Hg

Humidity: 69%

Dew point: 61 °F

Location of KazanLocation

Historic Weather in Kazan — Graph

°F

Kazan temperature yesterday

Maximum temperature yesterday: 75 °F (at 1:30 PM)
Minimum temperature yesterday: 54 °F (at 12:30 AM)
Average temperature yesterday: 65 °F

Past Weeks' High & Low Weather Summary

 TemperatureHumidityPressure
High81 °F (Aug 14, 11:00 AM)100% (Aug 18, 5:00 AM)30.21 "Hg (Aug 18, 5:00 AM)
Low39 °F (Aug 24, 4:00 AM)32% (Aug 23, 1:30 PM)29.68 "Hg (Aug 17, 9:00 AM)
Average59 °F71%29.96 "Hg
* Reported Aug 13 12:00 Noon — Aug 28 12:30 PM, Kazan, Weather by CustomWeather, © 2015

Note: Actual official high and low records may vary slightly from our data, if they occured in-between our weather recording intervals... More about our weather records

Advertising

Kazan weather history for previous 24 hours

 ConditionsComfort  
Time TempWeatherWind HumidityBarometerVisibility
12:30 PM
Fri, Aug 28
70 °FSunny.15 mph69%29.92 "Hg10 mi
12:00 PM70 °FSunny.15 mph69%29.92 "Hg10 mi
11:30 AM70 °FSunny.15 mph69%29.92 "Hg10 mi
11:00 AM70 °FSunny.17 mph64%29.92 "Hg10 mi
10:30 AM70 °FSunny.17 mph64%29.92 "Hg10 mi
10:00 AM70 °FSunny.17 mph69%29.92 "Hg10 mi
9:30 AM70 °FSunny.8 mph69%29.92 "Hg10 mi
9:00 AM66 °FPassing clouds.10 mph78%29.92 "HgN/A
8:30 AM64 °FSunny.8 mph83%29.92 "Hg10 mi
8:00 AM63 °FSunny.8 mph88%29.92 "Hg10 mi
7:30 AM61 °FPassing clouds.6 mph94%29.95 "HgN/A
7:00 AM61 °FScattered clouds.1 mph88%29.95 "HgN/A
6:30 AM59 °FScattered clouds.1 mph94%29.95 "HgN/A
6:00 AM59 °FScattered clouds.6 mph94%29.92 "HgN/A
5:30 AM59 °FPassing clouds.6 mph94%29.92 "HgN/A
5:00 AM59 °FSprinkles. Passing clouds.8 mph94%29.92 "HgN/A
4:30 AM59 °FSprinkles. Passing clouds.6 mph94%29.92 "HgN/A
4:00 AM59 °FThundershowers. Passing clouds.3 mph94%29.95 "HgN/A
3:30 AM59 °FThundershowers. Passing clouds.6 mph94%29.95 "Hg6 mi
3:00 AM59 °FThundershowers. Passing clouds.6 mph94%29.98 "Hg4 mi
2:30 AM59 °FThundershowers. Passing clouds.13 mph94%29.98 "Hg4 mi
2:00 AM59 °FThundershowers. Passing clouds.17 mph94%29.98 "Hg3 mi
1:30 AM55 °FThundershowers. Passing clouds.8 mph88%29.98 "HgN/A
1:00 AM57 °FPassing clouds.3 mph82%29.95 "HgN/A
12:30 AM57 °FPassing clouds.3 mph77%29.95 "HgN/A
12:00 AM57 °FPassing clouds.3 mph77%29.95 "HgN/A
11:30 PM
Thu, Aug 27
59 °FPassing clouds.3 mph72%29.95 "HgN/A
11:00 PM59 °FPassing clouds.1 mph72%29.95 "HgN/A
10:30 PM61 °FPassing clouds.3 mph68%29.95 "HgN/A
10:00 PM59 °FClear.3 mph72%29.95 "Hg10 mi
9:30 PM61 °FClear.3 mph68%29.95 "Hg10 mi
9:00 PM63 °FClear.3 mph64%29.95 "Hg10 mi
8:30 PM63 °FClear.3 mph59%29.95 "Hg10 mi
8:00 PM63 °FClear.1 mph59%29.95 "Hg10 mi
7:30 PM64 °FSunny.1 mph56%29.95 "Hg10 mi
7:00 PM66 °FSunny.3 mph52%29.95 "Hg10 mi
6:30 PM68 °FSunny.3 mph49%29.95 "Hg10 mi
6:00 PM70 °FSunny.6 mph46%29.95 "Hg10 mi
5:30 PM73 °FSunny.10 mph41%29.95 "Hg10 mi
5:00 PM73 °FSunny.10 mph36%29.92 "Hg10 mi
4:30 PM75 °FSunny.10 mph34%29.92 "Hg10 mi
4:00 PM75 °FPassing clouds.10 mph34%29.92 "HgN/A
3:30 PM75 °FPassing clouds.8 mph36%29.92 "HgN/A
3:00 PM75 °FPassing clouds.13 mph34%29.95 "HgN/A
2:30 PM75 °FPassing clouds.10 mph39%29.95 "HgN/A
2:00 PM75 °FPassing clouds.10 mph39%29.95 "HgN/A
1:30 PM75 °FPassing clouds.8 mph36%29.95 "HgN/A
1:00 PM73 °FPassing clouds.8 mph44%29.95 "HgN/A
Weather by CustomWeather, © 2015

See weather overviewHow to use our weather pages